Simultaneous Nadir Overpasses (SNOs) Predictions

Prediction of SNOs over PacNW region [( 10.00, 139.50) to ( 22.70, 165.60)] between AQUA and NPP Satellites:

Table of predicted SNOs over PacNW region for the next 30.0 days since TLE Epoch: 5/8/2020
Index Date (AQUA) Time (AQUA) AQUA Lat,Lon Date (NPP) Time (NPP) NPP Lat,Lon Distance(km) Time Diff (sec)
1 05/16/2020 15:09:59 22.60, 159.86 05/16/2020 15:10:44 23.16, 157.26 273.85 45
2 05/24/2020 15:59:19 22.64, 147.53 05/24/2020 16:01:25 23.30, 144.61 307.27 126
3 06/01/2020 15:09:46 22.62, 159.91 06/01/2020 15:10:40 23.18, 157.28 276.08 54
4 06/04/2020 03:31:34 22.65, 147.60 06/04/2020 03:28:05 26.80, 144.75 544.09 209




NCC Satellite Simultaneous Nadir Overpasses (SNOs) Prediction Service
